GW4420 Weather Reports


time (UTC)temp
C
wind
direction
speed
KPH
gust
KPH
rain 1hr
cm
rain 24hr
cm
rain mn
cm
humidity
%
barometer
mb
20260903222612 28 146 3.2 14.5 0.00 0.18 0.18 93 1003.6
20260903222110 28 158 8.0 12.9 0.00 0.18 0.18 93 1003.6
20260903221606 28 129 4.8 9.7 0.00 0.18 0.18 93 1003.5
20260903221104 28 159 6.4 12.9 0.00 0.18 0.18 93 1003.4
20260903220603 28 97 1.6 9.7 0.00 0.18 0.18 93 1003.4
20260903215602 28 110 3.2 11.3 0.00 0.18 0.18 93 1003.3
20260903215101 28 104 12.9 17.7 0.00 0.18 0.18 93 1003.4
20260903214555 28 203 11.3 20.9 0.00 0.18 0.18 93 1003.4
20260903214050 28 137 9.7 11.3 0.00 0.18 0.18 93 1003.2
20260903213545 27 160 4.8 12.9 0.00 0.18 0.18 93 1003.1
20260903213041 28 155 6.4 11.3 0.00 0.18 0.18 93 1003.2
20260903212537 27 139 1.6 3.2 0.00 0.18 0.18 93 1003.3
20260903212032 28 194 3.2 9.7 0.00 0.18 0.18 93 1002.9
20260903211527 28 134 11.3 14.5 0.00 0.18 0.18 93 1003.1
20260903211024 28 200 3.2 9.7 0.00 0.18 0.18 94 1002.9
20260903210518 27 83 4.8 9.7 0.00 0.18 0.18 93 1003.0
20260903210014 27 176 3.2 11.3 0.00 0.18 0.18 93 1003.0
20260903205508 27 126 0.0 6.4 0.00 0.18 0.18 93 1002.8
20260903205003 27 120 3.2 14.5 0.00 0.18 0.18 93 1003.0
20260903204459 27 167 4.8 9.7 0.00 0.18 0.18 93 1002.7
20260903203954 27 62 8.0 12.9 0.00 0.18 0.18 93 1002.8
20260903203450 27 258 1.6 14.5 0.00 0.18 0.18 93 1002.6
20260903202949 27 131 3.2 9.7 0.00 0.18 0.18 93 1002.5
20260903202445 27 115 8.0 16.1 0.00 0.18 0.18 93 1002.6
20260903201944 27 136 3.2 12.9 0.00 0.18 0.18 93 1002.6
20260903201440 27 170 9.7 14.5 0.00 0.18 0.18 93 1002.5
20260903200938 27 148 8.0 12.9 0.00 0.18 0.18 93 1002.4
20260903200434 27 107 4.8 12.9 0.00 0.18 0.18 93 1002.4
20260903195929 27 250 6.4 17.7 0.00 0.18 0.18 93 1002.4
20260903195425 27 133 9.7 12.9 0.00 0.18 0.18 94 1002.4
20260903194920 27 122 4.8 11.3 0.00 0.18 0.18 94 1002.2
20260903194416 27 152 4.8 11.3 0.00 0.18 0.18 94 1002.4
20260903193911 27 93 3.2 6.4 0.00 0.18 0.18 94 1002.5
20260903193408 27 103 1.6 6.4 0.00 0.18 0.18 94 1002.1
20260903192902 27 122 1.6 9.7 0.00 0.18 0.18 94 1002.5
20260903192358 27 54 1.6 6.4 0.00 0.18 0.18 94 1002.3
20260903191854 27 101 4.8 6.4 0.00 0.18 0.18 94 1002.1
20260903191349 27 110 3.2 4.8 0.13 0.18 0.18 94 1002.3
20260903190849 27 147 14.5 20.9 0.13 0.18 0.18 94 1002.2
20260903190343 27 112 4.8 16.1 0.00 0.15 0.15 94 1002.1
20260903185838 27 129 14.5 20.9 0.00 0.15 0.15 94 1002.2
20260903185333 27 185 6.4 12.9 0.00 0.15 0.15 94 1002.1
20260903184829 27 202 3.2 11.3 0.00 0.15 0.15 94 1002.1
20260903184325 27 136 8.0 16.1 0.00 0.15 0.15 93 1002.2
20260903183820 27 150 3.2 11.3 0.00 0.15 0.15 93 1002.2
20260903183314 27 184 3.2 9.7 0.79 0.15 0.15 93 1002.1
20260903182813 27 214 9.7 17.7 0.79 0.15 0.15 92 1001.9
20260903182307 27 113 3.2 6.4 0.13 0.03 0.03 92 1001.8
20260903181807 28 218 9.7 16.1 0.13 0.03 0.03 91 1002.0
20260903181302 28 159 8.0 12.9 0.00 0.00 0.00 91 1002.0
20260903180758 28 91 4.8 11.3 0.00 0.00 0.00 91 1002.1
20260903180257 28 104 8.0 16.1 0.00 0.00 0.00 91 1002.1
20260903175756 28 134 9.7 12.9 0.00 0.00 0.00 91 1002.2
20260903175255 28 166 11.3 17.7 0.00 0.00 0.00 91 1002.2
20260903174754 28 87 1.6 16.1 0.00 0.00 0.00 91 1002.1
20260903174250 28 92 8.0 12.9 0.00 0.00 0.00 91 1002.2
20260903173745 28 165 9.7 14.5 0.00 0.00 0.00 91 1002.0
20260903173241 28 167 11.3 22.5 0.00 0.00 0.00 92 1001.8
20260903172736 28 126 8.0 16.1 0.00 0.00 0.00 92 1002.2
20260903172231 28 132 8.0 14.5 0.00 0.00 0.00 92 1002.2
20260903171726 28 190 4.8 16.1 0.00 0.00 0.00 91 1002.2
20260903171222 28 145 8.0 12.9 0.00 0.00 0.00 91 1001.9
20260903170720 28 118 9.7 16.1 0.00 0.00 0.00 91 1002.1
20260903170216 28 169 8.0 17.7 0.00 0.00 0.00 91 1002.3
20260903165713 27 111 16.1 17.7 0.00 0.00 0.00 91 1002.3
20260903165209 27 148 9.7 16.1 0.00 0.00 0.00 91 1002.2
20260903164703 27 71 12.9 25.7 0.00 0.00 0.00 91 1002.3
20260903164159 27 149 4.8 14.5 0.00 0.00 0.00 92 1002.4
20260903163659 27 139 6.4 16.1 0.00 0.00 0.00 92 1002.2
20260903163155 27 173 14.5 20.9 0.00 0.00 0.00 92 1002.1
20260903162651 27 197 4.8 16.1 0.00 0.00 0.00 92 1002.1
20260903162147 27 95 6.4 12.9 0.00 0.00 0.00 92 1002.2
20260903161642 27 139 11.3 20.9 0.00 0.00 0.00 91 1002.2
20260903161132 27 115 3.2 6.4 0.00 0.00 0.00 91 1002.3
20260903160627 27 54 3.2 9.7 0.00 0.00 0.00 91 1002.1
20260903160127 27 125 4.8 16.1 0.00 0.00 0.00 91 1002.1
20260903155626 27 146 12.9 17.7 0.00 0.00 0.00 91 1002.3
20260903155121 27 59 4.8 20.9 0.00 0.00 0.00 90 1002.3
20260903154617 27 81 3.2 11.3 0.00 0.00 0.00 90 1002.3
20260903154113 27 130 6.4 17.7 0.00 0.00 0.00 90 1002.3
20260903153603 27 151 8.0 24.1 0.00 0.00 0.00 91 1002.3
20260903153058 27 111 8.0 11.3 0.00 0.00 0.00 92 1002.2
20260903152554 27 99 6.4 12.9 0.00 0.00 0.00 92 1002.1
20260903152050 27 176 8.0 16.1 0.00 0.00 0.00 92 1002.2
20260903151549 27 198 6.4 12.9 0.00 0.00 0.00 93 1002.0
20260903151044 27 182 4.8 9.7 0.00 0.00 0.00 93 1002.1
20260903150538 27 122 3.2 11.3 0.00 0.00 0.00 92 1002.0
20260903150034 27 184 4.8 11.3 0.00 2.90 2.90 92 1002.1
20260903145528 27 104 6.4 14.5 0.00 2.90 2.90 92 1002.0
20260903145024 27 75 11.3 24.1 0.00 2.90 2.90 92 1001.9
20260903144522 27 157 17.7 24.1 0.00 2.90 2.90 92 1002.1
20260903144019 27 91 11.3 24.1 0.00 2.90 2.90 92 1002.0
20260903143515 27 113 6.4 24.1 0.00 2.90 2.90 93 1002.0
20260903143010 27 153 11.3 17.7 0.18 2.90 2.90 93 1002.1
20260903142505 27 193 9.7 20.9 0.18 2.90 2.90 93 1002.0
20260903142002 27 132 11.3 25.7 0.00 2.87 2.87 93 1001.9
20260903141457 27 122 9.7 16.1 0.00 2.87 2.87 93 1001.9
20260903140952 27 136 9.7 24.1 0.00 2.87 2.87 93 1001.9
20260903140448 27 105 6.4 16.1 0.00 2.87 2.87 93 1002.0
20260903135943 27 149 12.9 16.1 0.00 2.87 2.87 93 1001.9
20260903135438 27 166 8.0 14.5 0.00 2.87 2.87 94 1001.8
20260903134933 27 119 4.8 12.9 0.00 2.87 2.87 94 1002.0
20260903134432 27 145 3.2 4.8 0.00 2.87 2.87 93 1001.9
20260903133929 27 163 11.3 25.7 0.00 2.87 2.87 94 1002.1
20260903133426 27 154 9.7 24.1 0.00 2.87 2.87 93 1002.0
20260903132921 27 122 6.4 14.5 0.30 2.87 2.87 93 1002.0
20260903132416 27 226 3.2 11.3 0.43 2.87 2.87 93 1001.8
20260903131910 27 157 3.2 11.3 0.00 2.79 2.79 93 1002.1
20260903131410 27 109 1.6 11.3 0.00 2.79 2.79 93 1001.9
20260903130909 27 175 12.9 24.1 0.00 2.79 2.79 93 1002.1
20260903130404 27 176 9.7 14.5 0.00 2.79 2.79 93 1001.9
20260903125903 27 130 8.0 12.9 0.00 2.79 2.79 92 1001.8
20260903125358 27 209 3.2 6.4 0.00 2.79 2.79 93 1001.4
20260903124857 27 111 3.2 9.7 0.00 2.79 2.79 93 1001.8
20260903124348 27 169 3.2 11.3 0.00 2.79 2.79 93 1001.7
20260903123846 27 168 1.6 6.4 0.00 2.79 2.79 93 1001.7
20260903123341 27 157 3.2 11.3 0.00 2.79 2.79 93 1001.9
20260903122840 27 118 11.3 22.5 0.00 2.79 2.79 94 1001.7
20260903122335 27 97 8.0 11.3 0.00 2.79 2.79 94 1001.7
20260903121833 27 174 3.2 6.4 0.00 2.79 2.79 94 1001.7
20260903121328 27 86 3.2 4.8 0.00 2.79 2.79 94 1001.4
20260903120825 27 185 0.0 3.2 0.00 2.79 2.79 94 1001.3
20260903120323 27 153 4.8 9.7 0.00 2.79 2.79 94 1001.2
20260903115822 27 125 6.4 9.7 0.00 2.79 2.79 94 1001.2
20260903115317 27 127 4.8 11.3 0.00 2.79 2.79 94 1001.3
20260903114817 27 145 9.7 12.9 0.00 2.79 2.79 95 1001.3
20260903114313 26 155 3.2 14.5 0.00 2.79 2.79 95 1001.0
20260903113808 26 183 4.8 9.7 0.18 2.79 2.79 95 1001.0
20260903113303 26 156 3.2 4.8 0.18 2.79 2.79 95 1000.9
20260903112759 26 96 1.6 4.8 0.00 2.77 2.77 94 1001.0
20260903112255 26 177 6.4 14.5 0.00 2.77 2.77 94 1001.1
20260903111753 26 67 6.4 11.3 0.00 2.77 2.77 94 1000.6
20260903111249 27 57 3.2 3.2 0.00 2.77 2.77 94 1001.0
20260903110744 27 4 1.6 4.8 0.00 2.77 2.77 94 1000.8
20260903110240 26 138 6.4 11.3 0.00 2.77 2.77 94 1000.5
20260903105739 26 38 1.6 12.9 0.00 2.77 2.77 94 1000.7
20260903105235 26 271 3.2 12.9 0.18 2.77 2.77 94 1000.5
20260903104734 26 174 9.7 16.1 0.18 2.77 2.77 94 1000.6
20260903104230 27 177 1.6 6.4 0.00 2.74 2.74 94 1000.5
20260903103725 27 35 3.2 4.8 0.00 2.74 2.74 94 1000.5
20260903103222 27 263 0.0 3.2 0.00 2.74 2.74 94 1000.5
20260903102717 27 188 1.6 6.4 0.00 2.74 2.74 94 1000.3
20260903102216 27 322 3.2 4.8 0.00 2.74 2.74 94 1000.3
20260903101715 27 259 3.2 3.2 0.00 2.74 2.74 94 1000.3
20260903101211 27 44 3.2 3.2 0.00 2.74 2.74 94 1000.1
20260903100706 27 349 1.6 3.2 0.00 2.74 2.74 93 1000.2
20260903100205 27 62 1.6 3.2 0.00 2.74 2.74 93 1000.2
20260903095702 27 90 3.2 4.8 0.00 2.74 2.74 93 999.9
20260903095158 27 59 0.0 3.2 0.00 2.74 2.74 93 1000.1
20260903094653 27 28 6.4 9.7 0.00 2.74 2.74 93 999.9
20260903094148 27 73 3.2 9.7 0.00 2.74 2.74 94 999.9
20260903093643 27 15 1.6 6.4 0.00 2.74 2.74 94 999.8
20260903093138 27 356 1.6 6.4 0.00 2.74 2.74 94 1000.0
20260903092633 27 106 3.2 11.3 0.00 2.74 2.74 94 999.9
20260903092127 27 99 1.6 9.7 0.00 2.74 2.74 94 1000.0
20260903091626 27 108 1.6 6.4 0.00 2.74 2.74 94 1000.0
20260903091120 27 43 4.8 6.4 0.00 2.74 2.74 94 1000.0
20260903090616 27 302 3.2 11.3 0.00 2.74 2.74 94 999.9
20260903090115 27 136 1.6 4.8 0.00 2.74 2.74 94 999.8
20260903085614 27 34 0.0 6.4 0.00 2.74 2.74 94 999.9
20260903085109 27 357 4.8 9.7 0.00 2.74 2.74 94 999.7
20260903084607 27 320 3.2 6.4 0.00 2.74 2.74 94 999.9
20260903084102 27 294 3.2 11.3 0.00 2.74 2.74 94 999.8
20260903083558 27 58 3.2 12.9 0.00 2.74 2.74 94 999.8
20260903083057 27 55 3.2 4.8 0.00 2.74 2.74 94 999.9
20260903082551 27 96 4.8 9.7 0.00 2.74 2.74 94 999.7
20260903082047 27 274 3.2 6.4 0.00 2.74 2.74 94 999.8
20260903081542 27 109 3.2 6.4 0.00 2.74 2.74 94 999.7
20260903081038 27 176 6.4 16.1 0.00 2.74 2.74 94 999.6
20260903080534 27 17 1.6 4.8 0.00 2.74 2.74 94 999.4
20260903080031 27 151 3.2 6.4 0.00 2.74 2.74 94 999.4
20260903075525 27 106 3.2 3.2 0.00 2.74 2.74 94 999.3
20260903075021 27 256 3.2 6.4 0.13 2.74 2.74 94 999.2
20260903074520 27 65 1.6 9.7 0.13 2.74 2.74 94 999.2
20260903074015 27 22 3.2 14.5 0.18 2.72 2.72 94 999.3
20260903073510 27 19 3.2 4.8 0.18 2.72 2.72 94 999.3
20260903073006 27 123 1.6 4.8 0.00 2.69 2.69 94 999.3
20260903072501 27 235 3.2 4.8 0.00 2.69 2.69 94 999.5
20260903071958 27 245 3.2 6.4 0.00 2.69 2.69 94 999.3
20260903071454 27 124 1.6 6.4 0.00 2.69 2.69 94 999.4
20260903070949 27 76 6.4 14.5 0.13 2.69 2.69 94 999.2
20260903070444 27 343 4.8 9.7 0.13 2.69 2.69 93 999.1
20260903065943 27 68 1.6 4.8 0.00 2.67 2.67 94 999.3
20260903065438 27 350 3.2 6.4 0.00 2.67 2.67 94 999.2
20260903064937 27 173 1.6 3.2 0.00 2.67 2.67 94 999.0
20260903064432 27 165 1.6 4.8 0.00 2.67 2.67 94 999.0
20260903063928 27 74 3.2 4.8 0.00 2.67 2.67 94 999.0
20260903063423 27 23 1.6 1.6 0.00 2.67 2.67 94 998.9
20260903062920 27 15 3.2 6.4 0.00 2.67 2.67 94 999.0
20260903062419 27 266 4.8 6.4 0.18 2.67 2.67 93 999.2
20260903061915 27 85 3.2 4.8 0.18 2.67 2.67 93 999.1
20260903061414 27 29 1.6 11.3 0.00 2.64 2.64 92 999.2
20260903060910 28 350 1.6 6.4 0.00 2.64 2.64 92 999.1
20260903060410 28 96 1.6 1.6 0.00 2.64 2.64 93 999.1
20260903055908 28 75 3.2 4.8 0.00 2.64 2.64 93 999.1
20260903055406 28 89 1.6 4.8 0.00 2.64 2.64 93 999.1
20260903054901 27 143 1.6 3.2 0.00 2.64 2.64 92 999.3
20260903054401 28 310 4.8 4.8 0.00 2.64 2.64 92 999.1
20260903053852 28 108 1.6 6.4 0.00 2.64 2.64 92 999.4
20260903053347 28 71 1.6 3.2 0.00 2.64 2.64 92 999.3
20260903052843 28 60 1.6 4.8 0.00 2.64 2.64 92 999.4
20260903052338 28 31 3.2 9.7 0.00 2.64 2.64 92 999.4
20260903051835 28 274 1.6 3.2 0.13 2.64 2.64 92 999.6
20260903051330 27 68 1.6 3.2 0.13 2.64 2.64 92 999.5
20260903050825 28 335 1.6 4.8 0.00 2.62 2.62 92 999.6
20260903050324 28 64 1.6 4.8 0.00 2.62 2.62 91 999.5
20260903045819 28 60 1.6 3.2 0.00 2.62 2.62 92 999.4
20260903045315 28 332 0.0 1.6 0.00 2.62 2.62 91 999.5
20260903044811 28 139 1.6 4.8 0.61 2.62 2.62 91 999.3
20260903044306 28 113 0.0 0.0 0.61 2.62 2.62 90 999.6
20260903043802 28 99 1.6 4.8 0.18 2.51 2.51 88 999.6
20260903043301 28 98 3.2 6.4 0.18 2.51 2.51 88 999.6
20260903042800 29 297 4.8 6.4 0.00 2.49 2.49 87 999.5
20260903042256 29 292 1.6 4.8 0.00 2.49 2.49 86 999.5
20260903041752 30 88 0.0 3.2 0.00 2.49 2.49 86 999.4
20260903041249 30 48 3.2 9.7 0.00 2.49 2.49 85 999.4
20260903040743 30 112 3.2 4.8 0.00 2.49 2.49 85 999.4
20260903040242 30 5 3.2 4.8 0.00 2.49 2.49 85 999.3
20260903035739 30 14 3.2 9.7 0.00 2.49 2.49 85 999.6
20260903035235 30 294 3.2 6.4 0.00 2.49 2.49 84 999.4
20260903034734 30 339 1.6 12.9 0.00 2.49 2.49 83 999.3
20260903034230 30 8 3.2 4.8 0.00 2.49 2.49 85 999.4
20260903033725 30 89 1.6 6.4 0.00 2.49 2.49 86 999.7
20260903033220 30 72 3.2 11.3 0.00 2.49 2.49 85 999.5
20260903032714 30 167 0.0 6.4 0.00 2.49 2.49 87 999.9
20260903032210 30 111 4.8 9.7 0.00 2.49 2.49 87 999.9
20260903031706 30 148 0.0 6.4 0.00 2.49 2.49 87 999.7
20260903031159 30 3 3.2 4.8 0.00 2.49 2.49 88 999.8
20260903030655 30 117 3.2 4.8 0.00 2.49 2.49 89 999.8
20260903030151 29 327 4.8 6.4 0.00 2.49 2.49 90 999.9
20260903025646 29 268 9.7 17.7 0.00 2.49 2.49 91 999.8
20260903025142 29 48 4.8 9.7 0.00 2.49 2.49 92 999.9
20260903024637 28 146 3.2 4.8 0.00 2.49 2.49 93 1000.0
20260903024136 28 69 1.6 3.2 0.00 2.49 2.49 93 1000.1
20260903023632 28 219 9.7 11.3 0.00 2.49 2.49 93 1000.2
20260903023131 27 288 1.6 4.8 0.13 2.49 2.49 95 1000.1
20260903022626 27 288 1.6 4.8 0.13 2.49 2.49 95 1000.1
20260903022126 27 358 1.6 4.8 0.00 2.46 2.46 95 1000.2
20260903021626 27 358 1.6 4.8 0.00 2.46 2.46 95 1000.1
20260903021120 27 358 1.6 4.8 0.00 2.46 2.46 95 1000.3
20260903020616 27 97 0.0 0.0 0.97 2.46 2.46 95 1000.4
20260903020115 27 97 0.0 1.6 0.97 2.46 2.46 95 1000.3
20260903015611 26 86 0.0 0.0 6.35 2.31 2.31 94 1000.3
20260903015107 26 86 0.0 0.0 6.35 2.31 2.31 94 1000.4
20260903014606 27 90 0.0 0.0 0.00 1.24 1.24 94 1000.6
20260903014107 27 90 0.0 0.0 0.00 1.24 1.24 94 1000.6
20260903013607 27 90 0.0 0.0 0.00 1.24 1.24 94 1000.5
20260903013101 27 90 0.0 0.0 0.00 1.24 1.24 94 1000.7
20260903012600 27 90 0.0 0.0 0.66 1.24 1.24 94 1000.9
20260903012059 27 90 0.0 0.0 0.79 1.24 1.24 94 1000.9
20260903011554 27 99 0.0 0.0 0.13 1.14 1.14 94 1001.0
20260903011054 27 86 0.0 0.0 0.48 1.12 1.12 94 1001.0
20260903010549 27 95 0.0 0.0 0.61 1.09 1.09 94 1000.9
20260903010047 26 106 0.0 0.0 0.30 1.04 1.04 93 1000.9
20260903005543 26 85 0.0 0.0 0.00 0.99 0.99 93 1000.6
20260903005038 26 85 0.0 0.0 1.19 0.99 0.99 93 1001.0
20260903004538 26 106 1.6 1.6 1.19 0.99 0.99 93 1000.9
20260903004034 27 289 6.4 9.7 0.00 0.79 0.79 92 1001.0
20260903003529 27 289 6.4 9.7 0.00 0.79 0.79 92 1000.8
20260903003025 27 289 6.4 9.7 1.07 0.79 0.79 92 1001.2
20260903002525 27 289 6.4 9.7 1.07 0.79 0.79 92 1001.2
20260903002019 28 137 1.6 3.2 0.13 0.61 0.61 91 1001.1
20260903001514 28 137 1.6 3.2 0.13 0.61 0.61 91 1001.1
20260903001013 28 96 0.0 1.6 0.18 0.58 0.58 91 1000.9
20260903000509 28 33 1.6 1.6 0.00 0.56 0.56 91 1001.0
20260903000008 29 226 1.6 1.6 0.18 0.56 0.56 91 1000.8
20260902235501 30 18 0.0 1.6 0.00 0.53 0.53 91 1000.8
20260902234956 28 94 0.0 1.6 0.00 0.53 0.53 93 1000.9
20260902234451 28 333 0.0 0.0 0.00 0.53 0.53 93 1001.1
20260902233950 28 96 0.0 0.0 0.00 0.53 0.53 93 1001.3
20260902233449 28 115 1.6 3.2 0.00 0.53 0.53 93 1001.2
20260902232944 28 76 1.6 1.6 0.00 0.53 0.53 93 1001.3
20260902232438 28 85 0.0 1.6 0.00 0.53 0.53 94 1001.2
20260902231938 28 100 0.0 0.0 0.00 0.53 0.53 94 1001.2
20260902231433 27 97 0.0 1.6 0.00 0.53 0.53 95 1001.2
20260902230928 27 99 0.0 0.0 0.00 0.53 0.53 95 1001.2
20260902230427 27 99 0.0 0.0 0.00 0.53 0.53 95 1001.2
20260902225921 27 99 0.0 0.0 0.00 0.53 0.53 95 1001.3
20260902225411 27 99 0.0 0.0 0.00 0.53 0.53 95 1001.4
20260902224910 27 103 0.0 0.0 0.00 0.53 0.53 95 1001.4
20260902224409 27 100 0.0 0.0 0.00 0.53 0.53 95 1001.3
20260902223906 27 86 0.0 1.6 0.00 0.53 0.53 95 1001.2
20260902223401 27 72 0.0 0.0 0.00 0.53 0.53 95 1001.3
20260902222855 27 90 0.0 0.0 0.00 0.53 0.53 96 1001.1